Location: Newark
(42.3578°N, 71.0617°W)
Time: 21:14:38
(UTC+00:00)

N. Korean satellite - Visible Passes

Search period start: 20 September 2020 00:00
Search period end: 30 September 2020 00:00
Orbit: 455 x 503 km, 97.2° (Epoch: 20 September)

Date Brightness Start Highest point End Pass type
(mag) Time Alt. Az. Time Alt. Az. Time Alt. Az.
20 Sep 10.3 09:10:07 10° ENE 09:10:54 11° E 09:11:40 10° ESE visible
22 Sep 8.7 09:49:11 10° NNE 09:52:32 33° E 09:55:48 10° SSE visible
23 Sep 9.8 09:24:01 10° NE 09:26:21 16° E 09:28:39 10° SE visible
25 Sep 7.6 10:04:18 10° NNE 10:07:52 52° E 10:11:22 10° S visible
26 Sep 9.2 09:38:45 10° NE 09:41:46 24° E 09:44:43 10° SSE visible
27 Sep 10.1 09:14:08 10° ENE 09:15:32 12° E 09:16:57 10° ESE visible
29 Sep 8.3 09:53:44 10° NNE 09:57:07 37° E 10:00:25 10° SSE visible
